This is the latest recevied weather packets stored in our database for station/object KD4VIF. If no packets are shown the sender has not sent any weather packets the latest 10 day(s).
| Time | Temp. | Humidity | Pressure | Rain* | Wind** | Luminosity | Snow |
|---|---|---|---|---|---|---|---|
| 1777554383 | 15.56° C | 100% | 1010.9 hPa | 5.08 mm | 0 m/s | - | - |
| 1777554141 | 15.56° C | 100% | 1011.1 hPa | 4.57 mm | 0 m/s | - | - |
| 1777553900 | 15.56° C | 100% | 1011.3 hPa | 4.06 mm | 0 m/s | - | - |
| 1777553781 | 15.56° C | 100% | 1011.2 hPa | 1.52 mm | 0 m/s | - | - |
| 1777553540 | 15.56° C | 100% | 1011.3 hPa | 1.02 mm | 0 m/s | - | - |
| 1777553481 | 15.56° C | 100% | 1011.3 hPa | 0.51 mm | 0.45 m/s, 209° | - | - |
| 1777553181 | 15.56° C | 100% | 1011.4 hPa | 0.51 mm | 0.45 m/s, 355° | - | - |
| 1777552822 | 16.11° C | 100% | 1011.5 hPa | 1.52 mm | 0 m/s | - | - |
| 1777552461 | 17.22° C | 100% | 1011.3 hPa | 0.51 mm | 0 m/s | - | - |
| 1777552162 | 17.22° C | 100% | 1011.2 hPa | 0.51 mm | 0 m/s | - | - |
| 1777552101 | 17.22° C | 100% | 1011.1 hPa | 0 mm | 0.45 m/s, 271° | - | - |
| 1777551801 | 17.22° C | 100% | 1010.8 hPa | 0 mm | 0 m/s | - | - |
| 1777551202 | 17.78° C | 100% | 1010.1 hPa | 0 mm | 0 m/s | - | - |
| 1777550900 | 17.78° C | 100% | 1009.7 hPa | 0 mm | 0 m/s | - | - |
| 1777550001 | 17.78° C | 100% | 1008.8 hPa | 0 mm | 0 m/s | - | - |
| 1777549100 | 17.78° C | 100% | 1008.4 hPa | 0 mm | 0 m/s | - | - |
| 1777548799 | 17.78° C | 100% | 1008.2 hPa | 0 mm | 0 m/s | - | - |
| 1777548200 | 17.78° C | 100% | 1008.1 hPa | 0 mm | 0 m/s | - | - |
| 1777547601 | 17.78° C | 100% | 1007.9 hPa | 0 mm | 0 m/s | - | - |
| 1777547303 | 17.78° C | 100% | 1007.8 hPa | 0 mm | 0 m/s | - | - |
| 1777546700 | 17.78° C | 100% | 1008 hPa | 0 mm | 0 m/s | - | - |
| 1777546401 | 17.78° C | 100% | 1007.9 hPa | 0 mm | 0 m/s | - | - |
| 1777545801 | 17.78° C | 100% | 1007.9 hPa | 0 mm | 0 m/s | - | - |
| 1777545500 | 18.33° C | 100% | 1008.1 hPa | 0 mm | 0 m/s | - | - |
| 1777544900 | 17.78° C | 100% | 1007.8 hPa | 0 mm | 0 m/s | - | - |
* Rain latest hour (hover to see other rain measurements)
** Current wind speed in m/s (hover to see current wind gust speed)